Weather History for Big Rapids, MI

Change the Weather History Date:

Tuesday, October 9, 2012

  Actual Average Record
Temperature  
Mean Temperature 54 °F -  
Max Temperature 64 °F 58 °F 78 °F (2011)
Min Temperature 43 °F 38 °F 19 °F (1989)
Degree Days  
Heating Degree Days 11    
Growing Degree Days 4 (Base 50)    
Moisture  
Dew Point 34 °F    
Average Humidity 51    
Maximum Humidity 90    
Minimum Humidity 31    
Precipitation  
Precipitation 0.00 in - - ()
Sea Level Pressure  
Sea Level Pressure 29.85 in    
Wind  
Wind Speed 11 mph (SSW)    
Max Wind Speed 25 mph    
Max Gust Speed 37 mph    
Visibility 10 miles    
Events Rain    
Averages and records for this station are not official NWS values.
T = Trace of Precipitation, MM = Missing Value Source: NWS Daily Summary

Daily Weather History Graph

Daily Weather History Graph

Search for Another Location

Airport:

Trip Planner

Search our weather history database for the weather conditions in past years. The results will help you decide how hot, cold, wet, or windy it might be!

Date:

Astronomy

Oct. 09, 2012 Rise Set
Actual Time 7:49 AM EDT 7:07 PM EDT
Civil Twilight 7:20 AM EDT 7:36 PM EDT
Nautical Twilight 6:47 AM EDT 8:09 PM EDT
Astronomical Twilight 6:14 AM EDT 8:43 PM EDT
Moon 1:14 AM EDT (10/9) 3:45 PM EDT (10/9)
Length of Visible Light 12h 15m
Length of Day
11h 18m
Last Quarter, 37% of the Moon is Illuminated
Oct 9
Last Quarter
Oct 15
New
Oct 21
First Quarter
Oct 29
Full
Nov 6
Last Quarter

Hourly Weather History & Observations

Time (EDT) Temp. Windchill Dew Point Humidity Pressure Visibility Wind Dir Wind Speed Gust Speed Precip Events Conditions
12:15 AM 47.3 °F - 25.3 °F 42% 29.98 in 10.0 mi South 8.1 mph - N/A   Clear
12:34 AM 47.3 °F - 25.5 °F 43% 29.99 in 10.0 mi South 8.1 mph - N/A   Scattered Clouds
12:55 AM 47.3 °F - 25.7 °F 43% 29.98 in 10.0 mi South 5.8 mph - N/A   Scattered Clouds
1:15 AM 46.8 °F - 26.2 °F 45% 29.98 in 10.0 mi South 8.1 mph - N/A   Clear
1:34 AM 46.8 °F - 26.6 °F 45% 29.97 in 10.0 mi South 6.9 mph - N/A   Scattered Clouds
1:55 AM 46.4 °F 43.5 °F 27.1 °F 47% 29.97 in 10.0 mi South 5.8 mph - N/A   Scattered Clouds
2:14 AM 46.4 °F 42.4 °F 27.3 °F 47% 29.97 in 10.0 mi SSE 8.1 mph - N/A   Clear
2:48 AM 47.1 °F - 27.9 °F 47% 29.96 in 10.0 mi South 9.2 mph 17.3 mph N/A   Overcast
3:36 AM 48.2 °F - 28.4 °F 46% 29.94 in 10.0 mi South 8.1 mph - N/A   Overcast
3:57 AM 48.2 °F - 30.2 °F 50% 29.94 in 10.0 mi South 11.5 mph 19.6 mph N/A   Overcast
4:15 AM 48.2 °F - 30.7 °F 51% 29.94 in 10.0 mi South 8.1 mph 18.4 mph N/A   Overcast
4:34 AM 48.0 °F - 30.2 °F 50% 29.94 in 10.0 mi South 12.7 mph 20.7 mph N/A   Overcast
5:14 AM 47.8 °F - 30.7 °F 52% 29.93 in 10.0 mi South 8.1 mph 20.7 mph N/A   Mostly Cloudy
5:34 AM 47.8 °F - 31.1 °F 52% 29.92 in 10.0 mi South 6.9 mph 19.6 mph N/A   Scattered Clouds
5:55 AM 47.3 °F - 31.6 °F 55% 29.92 in 10.0 mi South 8.1 mph 20.7 mph N/A   Scattered Clouds
6:15 AM 46.8 °F - 31.8 °F 56% 29.92 in 10.0 mi South 5.8 mph - N/A   Scattered Clouds
6:34 AM 46.4 °F 42.4 °F 32.0 °F 57% 29.92 in 10.0 mi South 8.1 mph - N/A   Clear
6:55 AM 46.0 °F 41.4 °F 32.0 °F 58% 29.92 in 10.0 mi South 9.2 mph - N/A   Clear
7:15 AM 45.9 °F 41.2 °F 32.9 °F 61% 29.91 in 10.0 mi South 9.2 mph - N/A   Clear
7:55 AM 46.2 °F 41.7 °F 33.3 °F 61% 29.91 in 10.0 mi South 9.2 mph 17.3 mph N/A   Clear
8:15 AM 46.4 °F 41.5 °F 33.4 °F 61% 29.91 in 10.0 mi South 10.4 mph 17.3 mph N/A   Clear
8:34 AM 47.3 °F - 33.3 °F 58% 29.91 in 10.0 mi South 10.4 mph 20.7 mph N/A   Clear
8:55 AM 47.7 °F - 33.4 °F 58% 29.91 in 10.0 mi South 9.2 mph 17.3 mph N/A   Clear
9:14 AM 48.2 °F - 33.8 °F 58% 29.91 in 10.0 mi South 12.7 mph 19.6 mph N/A   Scattered Clouds
9:34 AM 49.1 °F - 34.2 °F 56% 29.91 in 10.0 mi South 8.1 mph 17.3 mph N/A   Overcast
9:55 AM 50.0 °F - 34.7 °F 56% 29.91 in 10.0 mi South 10.4 mph 20.7 mph N/A   Scattered Clouds
10:15 AM 50.9 °F - 35.4 °F 55% 29.89 in 10.0 mi South 16.1 mph 19.6 mph N/A   Scattered Clouds
10:35 AM 51.3 °F - 35.8 °F 55% 29.88 in 10.0 mi South 13.8 mph 21.9 mph N/A   Overcast
10:55 AM 52.7 °F - 36.5 °F 54% 29.88 in 10.0 mi South 20.7 mph 26.5 mph N/A   Overcast
11:14 AM 54.0 °F - 36.7 °F 52% 29.87 in 10.0 mi SSW 16.1 mph 25.3 mph N/A   Mostly Cloudy
11:35 AM 55.0 °F - 37.0 °F 51% 29.86 in 10.0 mi South 16.1 mph 25.3 mph N/A   Mostly Cloudy
11:55 AM 57.2 °F - 37.9 °F 49% 29.86 in 10.0 mi SSW 21.9 mph 29.9 mph N/A   Overcast
12:14 PM 56.7 °F - 38.3 °F 50% 29.85 in 10.0 mi SSW 17.3 mph 36.8 mph N/A   Overcast
12:35 PM 56.8 °F - 37.8 °F 49% 29.85 in 10.0 mi SSW 17.3 mph 27.6 mph N/A   Overcast
12:55 PM 57.9 °F - 36.7 °F 45% 29.84 in 10.0 mi SSW 19.6 mph 33.4 mph N/A   Scattered Clouds
1:14 PM 58.6 °F - 36.0 °F 43% 29.84 in 10.0 mi SSW 20.7 mph 28.8 mph N/A   Scattered Clouds
1:35 PM 61.2 °F - 35.8 °F 39% 29.83 in 10.0 mi SSW 16.1 mph 25.3 mph N/A   Scattered Clouds
1:55 PM 62.1 °F - 35.2 °F 37% 29.81 in 10.0 mi SSW 12.7 mph 26.5 mph N/A   Clear
2:15 PM 63.3 °F - 34.7 °F 34% 29.81 in 10.0 mi SW 19.6 mph 27.6 mph N/A   Clear
2:34 PM 64.8 °F - 33.4 °F 31% 29.80 in 10.0 mi SW 24.2 mph 32.2 mph N/A   Clear
2:54 PM 63.5 °F - 32.5 °F 31% 29.80 in 7.0 mi SSW 25.3 mph 32.2 mph N/A   Mostly Cloudy
3:15 PM 64.4 °F - 33.6 °F 32% 29.80 in 10.0 mi SW 18.4 mph 28.8 mph N/A   Mostly Cloudy
3:34 PM 63.1 °F - 33.8 °F 33% 29.80 in 10.0 mi SW 17.3 mph 26.5 mph N/A   Mostly Cloudy
3:55 PM 63.7 °F - 33.4 °F 32% 29.78 in 10.0 mi SW 19.6 mph 28.8 mph N/A   Overcast
4:15 PM 63.3 °F - 32.4 °F 31% 29.78 in 10.0 mi SSW 19.6 mph 29.9 mph N/A   Overcast
4:34 PM 62.8 °F - 32.0 °F 32% 29.77 in 10.0 mi SSW 23.0 mph 35.7 mph N/A   Overcast
4:55 PM 62.8 °F - 32.0 °F 32% 29.76 in 10.0 mi SSW 21.9 mph 29.9 mph N/A   Overcast
5:15 PM 62.4 °F - 32.2 °F 32% 29.76 in 10.0 mi SSW 16.1 mph 31.1 mph N/A   Overcast
5:34 PM 62.1 °F - 32.2 °F 33% 29.76 in 10.0 mi SSW 12.7 mph 27.6 mph N/A   Overcast
5:55 PM 61.7 °F - 32.4 °F 33% 29.77 in 10.0 mi SW 18.4 mph 27.6 mph N/A   Overcast
6:15 PM 61.2 °F - 32.5 °F 34% 29.77 in 10.0 mi SSW 18.4 mph 26.5 mph N/A   Overcast
6:34 PM 60.8 °F - 33.1 °F 35% 29.76 in 10.0 mi SSW 9.2 mph 27.6 mph N/A   Mostly Cloudy
6:55 PM 60.3 °F - 33.8 °F 37% 29.76 in 10.0 mi SSW 13.8 mph 25.3 mph N/A   Scattered Clouds
7:15 PM 60.1 °F - 34.0 °F 38% 29.77 in 10.0 mi SSW 18.4 mph 27.6 mph N/A   Scattered Clouds
7:34 PM 59.9 °F - 34.3 °F 38% 29.76 in 10.0 mi South 12.7 mph 25.3 mph N/A   Mostly Cloudy
7:55 PM 59.2 °F - 34.9 °F 40% 29.76 in 10.0 mi SSW 10.4 mph 25.3 mph N/A   Mostly Cloudy
8:15 PM 59.2 °F - 35.6 °F 41% 29.75 in 10.0 mi South 10.4 mph 18.4 mph N/A   Mostly Cloudy
8:34 PM 59.0 °F - 36.7 °F 43% 29.75 in 10.0 mi SSW 8.1 mph 20.7 mph N/A   Overcast
8:55 PM 59.0 °F - 38.1 °F 46% 29.74 in 10.0 mi SSW 9.2 mph 23.0 mph N/A   Overcast
9:15 PM 52.3 °F - 44.6 °F 75% 29.76 in 10.0 mi NW 20.7 mph 29.9 mph N/A Rain Rain
9:34 PM 50.0 °F - 46.4 °F 87% 29.77 in 4.0 mi NW 11.5 mph 20.7 mph N/A Rain Light Rain
9:55 PM 49.3 °F - 46.4 °F 90% 29.77 in 5.0 mi WNW 23.0 mph 27.6 mph N/A Rain Light Rain
10:15 PM 46.4 °F 39.8 °F 43.0 °F 88% 29.78 in 4.0 mi NW 16.1 mph 27.6 mph N/A Rain Light Rain
10:35 PM 45.5 °F 39.2 °F 42.1 °F 88% 29.79 in 4.0 mi NW 13.8 mph - N/A Rain Light Rain
10:55 PM 45.0 °F 40.1 °F 42.1 °F 90% 29.79 in 7.0 mi NNW 9.2 mph 17.3 mph N/A Rain Light Rain
11:10 PM 44.8 °F 39.9 °F 41.9 °F 90% 29.79 in 10.0 mi NW 9.2 mph - N/A Rain Light Rain
11:34 PM 44.2 °F 37.6 °F 41.2 °F 89% 29.81 in 7.0 mi NW 13.8 mph 18.4 mph N/A Rain Light Rain
11:55 PM 43.3 °F 38.6 °F 39.9 °F 88% 29.81 in 5.0 mi NW 8.1 mph 20.7 mph N/A   Overcast